When you browse on this site, cookies collect data to enhance your experience and personalize the content and advertising you see.
Visit our Privacy Policy to learn more. By continuing to use the site, you agree to this use of cookies and data.
  • In Portugal
  • List of Countries
  • For 7 days
  • Water Temperature
  • Satellite Maps
  • Weather Map
  • Weather Widgets
  • user-avatar
    Login

    Hourly Weather Rylenki

    Today, 21 April, Sunday

    Time Temperature Precipitation Wind Pressure Humidity
    00:00 +5°C° 0 mm 2 mps 750 mmHg 85%
    01:00 +5°C° 0 mm 2 mps 750 mmHg 87%
    02:00 +4°C° 0 mm 2 mps 750 mmHg 91%
    03:00 +4°C° 0 mm 2 mps 750 mmHg 92%
    04:00 +2°C° 0 mm 3 mps 750 mmHg 93%
    05:00 +2°C° 0 mm 3 mps 750 mmHg 94%
    06:00 +4°C° 0 mm 3 mps 750 mmHg 88%
    07:00 +5°C° 0 mm 4 mps 750 mmHg 82%
    08:00 +7°C° 0 mm 4 mps 750 mmHg 75%
    09:00 +10°C° 0 mm 4 mps 750 mmHg 68%
    10:00 +11°C° 0 mm 4 mps 751 mmHg 60%
    11:00 +13°C° 0 mm 4 mps 751 mmHg 53%
    12:00 +14°C° 0.1 mm 4 mps 751 mmHg 49%
    13:00 +15°C° 0.1 mm 4 mps 751 mmHg 46%
    14:00 +17°C° 0 mm 4 mps 751 mmHg 40%
    15:00 +16°C° 0 mm 3 mps 751 mmHg 44%
    16:00 +16°C° 0 mm 3 mps 751 mmHg 47%
    17:00 +14°C° 0 mm 3 mps 751 mmHg 50%
    18:00 +14°C° 0 mm 2 mps 751 mmHg 54%
    19:00 +12°C° 0 mm 2 mps 751 mmHg 57%
    20:00 +10°C° 0 mm 2 mps 752 mmHg 61%
    21:00 +9°C° 0 mm 2 mps 752 mmHg 64%
    22:00 +9°C° 0 mm 2 mps 752 mmHg 66%
    23:00 +8°C° 0 mm 2 mps 753 mmHg 69%

    Tomorrow, 22 April, Monday

    Time Temperature Precipitation Wind Pressure Humidity
    00:00 +8°C° 0 mm 2 mps 753 mmHg 70%
    01:00 +8°C° 0 mm 1 mps 753 mmHg 72%
    02:00 +8°C° 0 mm 1 mps 753 mmHg 73%
    03:00 +7°C° 0 mm 1 mps 754 mmHg 74%
    04:00 +7°C° 0 mm 1 mps 754 mmHg 75%
    05:00 +7°C° 0 mm 1 mps 754 mmHg 75%
    06:00 +9°C° 0 mm 1 mps 754 mmHg 68%
    07:00 +11°C° 0 mm 1 mps 755 mmHg 62%
    08:00 +13°C° 0 mm 1 mps 755 mmHg 55%
    09:00 +14°C° 0 mm 1 mps 755 mmHg 47%
    10:00 +15°C° 0 mm 1 mps 755 mmHg 40%
    11:00 +17°C° 0 mm 2 mps 755 mmHg 32%
    12:00 +17°C° 0 mm 2 mps 755 mmHg 33%
    13:00 +16°C° 0 mm 1 mps 755 mmHg 34%
    14:00 +16°C° 0 mm 1 mps 755 mmHg 35%
    15:00 +16°C° 0 mm 1 mps 755 mmHg 36%
    16:00 +16°C° 0 mm 1 mps 755 mmHg 37%
    17:00 +16°C° 0 mm 1 mps 755 mmHg 38%
    18:00 +15°C° 0 mm 1 mps 755 mmHg 41%
    19:00 +13°C° 0 mm 1 mps 755 mmHg 44%
    20:00 +12°C° 0 mm 1 mps 755 mmHg 47%
    21:00 +11°C° 0 mm 1 mps 756 mmHg 50%
    22:00 +9°C° 0 mm 0 mps 756 mmHg 52%
    23:00 +9°C° 0 mm 0 mps 756 mmHg 55%

    Day after tomorrow, 23 April, Tuesday

    Time Temperature Precipitation Wind Pressure Humidity
    00:00 +9°C° 0 mm 1 mps 756 mmHg 56%
    01:00 +9°C° 0 mm 1 mps 756 mmHg 58%
    02:00 +8°C° 0 mm 1 mps 757 mmHg 60%
    03:00 +8°C° 0 mm 1 mps 757 mmHg 61%
    04:00 +8°C° 0 mm 1 mps 757 mmHg 62%
    05:00 +8°C° 0 mm 1 mps 757 mmHg 63%
    06:00 +10°C° 0 mm 1 mps 757 mmHg 60%
    07:00 +12°C° 0 mm 1 mps 757 mmHg 56%
    08:00 +13°C° 0 mm 1 mps 757 mmHg 52%
    09:00 +15°C° 0 mm 2 mps 757 mmHg 47%
    10:00 +16°C° 0 mm 2 mps 757 mmHg 42%
    11:00 +18°C° 0 mm 2 mps 757 mmHg 37%
    12:00 +18°C° 0 mm 2 mps 757 mmHg 36%
    13:00 +19°C° 0 mm 1 mps 757 mmHg 35%
    14:00 +19°C° 0 mm 1 mps 757 mmHg 35%
    15:00 +19°C° 0 mm 1 mps 756 mmHg 36%
    16:00 +19°C° 0 mm 1 mps 756 mmHg 37%
    17:00 +19°C° 0 mm 1 mps 756 mmHg 39%
    18:00 +15°C° 0 mm 0 mps 756 mmHg 42%
    19:00 +13°C° 0 mm 0 mps 756 mmHg 46%
    20:00 +11°C° 0 mm 0 mps 756 mmHg 50%
    21:00 +11°C° 0 mm 0 mps 756 mmHg 51%
    22:00 +10°C° 0 mm 0 mps 756 mmHg 53%
    23:00 +10°C° 0 mm 0 mps 756 mmHg 54%

    24 April, Wednesday

    Time Temperature Precipitation Wind Pressure Humidity
    00:00 +9°C° 0 mm 0 mps 756 mmHg 56%
    01:00 +9°C° 0 mm 0 mps 756 mmHg 57%
    02:00 +8°C° 0 mm 0 mps 757 mmHg 59%
    03:00 +8°C° 0 mm 0 mps 757 mmHg 60%
    04:00 +8°C° 0 mm 0 mps 757 mmHg 61%
    05:00 +7°C° 0 mm 0 mps 757 mmHg 62%
    06:00 +9°C° 0 mm 0 mps 757 mmHg 57%
    07:00 +12°C° 0 mm 0 mps 757 mmHg 52%
    08:00 +14°C° 0 mm 0 mps 757 mmHg 48%
    09:00 +16°C° 0 mm 1 mps 757 mmHg 44%
    10:00 +18°C° 0 mm 1 mps 757 mmHg 40%
    11:00 +20°C° 0 mm 1 mps 757 mmHg 36%
    12:00 +19°C° 0 mm 2 mps 757 mmHg 35%
    13:00 +20°C° 0 mm 2 mps 756 mmHg 34%
    14:00 +20°C° 0 mm 2 mps 756 mmHg 33%
    15:00 +20°C° 0 mm 2 mps 756 mmHg 35%
    16:00 +19°C° 0 mm 2 mps 756 mmHg 37%
    17:00 +19°C° 0 mm 2 mps 755 mmHg 39%
    18:00 +17°C° 0 mm 2 mps 755 mmHg 44%
    19:00 +15°C° 0 mm 1 mps 755 mmHg 48%
    20:00 +14°C° 0 mm 1 mps 755 mmHg 53%
    21:00 +13°C° 0 mm 1 mps 755 mmHg 55%
    22:00 +12°C° 0 mm 1 mps 756 mmHg 56%
    23:00 +12°C° 0 mm 1 mps 756 mmHg 58%

    25 April, Thursday

    Time Temperature Precipitation Wind Pressure Humidity
    00:00 +11°C° 0 mm 1 mps 756 mmHg 59%
    01:00 +11°C° 0 mm 1 mps 756 mmHg 60%
    02:00 +10°C° 0 mm 1 mps 756 mmHg 61%
    03:00 +10°C° 0 mm 1 mps 756 mmHg 63%
    04:00 +10°C° 0 mm 1 mps 756 mmHg 64%
    05:00 +9°C° 0 mm 1 mps 756 mmHg 66%
    06:00 +11°C° 0 mm 1 mps 756 mmHg 62%
    07:00 +13°C° 0 mm 2 mps 756 mmHg 58%
    08:00 +15°C° 0 mm 2 mps 756 mmHg 54%
    09:00 +16°C° 0 mm 2 mps 756 mmHg 49%
    10:00 +18°C° 0 mm 3 mps 756 mmHg 45%
    11:00 +19°C° 0 mm 4 mps 756 mmHg 41%
    12:00 +19°C° 0 mm 4 mps 755 mmHg 40%
    13:00 +20°C° 0 mm 4 mps 755 mmHg 39%
    14:00 +20°C° 0 mm 4 mps 755 mmHg 39%
    15:00 +20°C° 0 mm 4 mps 754 mmHg 41%
    16:00 +20°C° 0 mm 3 mps 754 mmHg 43%
    17:00 +20°C° 0 mm 3 mps 753 mmHg 45%
    18:00 +18°C° 0 mm 3 mps 753 mmHg 50%
    19:00 +16°C° 0 mm 2 mps 753 mmHg 56%
    20:00 +14°C° 0 mm 2 mps 753 mmHg 61%
    21:00 +13°C° 0 mm 2 mps 753 mmHg 63%
    22:00 +13°C° 0 mm 2 mps 753 mmHg 65%
    23:00 +12°C° 0 mm 2 mps 752 mmHg 66%

    26 April, Friday

    Time Temperature Precipitation Wind Pressure Humidity
    00:00 +12°C° 0 mm 2 mps 752 mmHg 67%
    01:00 +10°C° 0 mm 2 mps 752 mmHg 69%
    02:00 +10°C° 0 mm 2 mps 752 mmHg 70%
    03:00 +10°C° 0 mm 2 mps 752 mmHg 71%
    04:00 +9°C° 0 mm 3 mps 752 mmHg 72%
    05:00 +9°C° 0 mm 3 mps 751 mmHg 73%
    06:00 +11°C° 0 mm 3 mps 751 mmHg 68%
    07:00 +13°C° 0 mm 4 mps 751 mmHg 63%
    08:00 +14°C° 0 mm 4 mps 751 mmHg 59%
    09:00 +16°C° 0 mm 5 mps 750 mmHg 54%
    10:00 +17°C° 0 mm 5 mps 750 mmHg 49%
    11:00 +20°C° 0 mm 6 mps 750 mmHg 44%
    12:00 +20°C° 0 mm 6 mps 749 mmHg 43%
    13:00 +21°C° 0 mm 6 mps 749 mmHg 42%
    14:00 +22°C° 0 mm 6 mps 748 mmHg 41%
    15:00 +21°C° 0 mm 5 mps 748 mmHg 43%
    16:00 +21°C° 0 mm 4 mps 747 mmHg 45%
    17:00 +21°C° 0 mm 4 mps 747 mmHg 48%
    18:00 +19°C° 0 mm 3 mps 747 mmHg 53%
    19:00 +17°C° 0 mm 3 mps 747 mmHg 58%
    20:00 +14°C° 0 mm 3 mps 747 mmHg 63%
    21:00 +14°C° 0 mm 2 mps 747 mmHg 63%
    22:00 +14°C° 0 mm 2 mps 747 mmHg 62%
    23:00 +13°C° 0 mm 2 mps 747 mmHg 61%
    Show more